Pagina principală
METAR-TAF:

METAR-TAF

Aeroporturi :

Sandpoint Airport (Dave Wall Field)

Sandpoint, Idaho, Statele Unite ale Americii

Latitudine: 48-17-58N, longitudine: 116-33-36W, elevație: 648 m

Observații meteo curente

Raportul a fost făcut în urmă cu 30 de minute, la 20:55 UTC
Vânt 7 kt de la Est/Sud-est
Temperatură 24°C
Umiditate 31%
Presiune 1014 hPa
Vizibilitate: 16.1 km
Cer senin

METAR: KSZT 212055Z AUTO 11007KT 10SM CLR 24/06 A2993 RMK AO2

Ora: 14:25 (21:25 UTC)


TAF: lipsă

Observații și prognoze meteo pentru peste 4.000 de aeroporturi (rapoarte METAR și TAF).

Stațiile disponibile sunt reprezentate pe hartă prin puncte galbene și roșii.

Țineți indicatorul mouse-ului pe punctul dorit pentru a vedea denumirea stației.

Apoi, faceți clic pentru a vedea observațiile și prognozele meteorologice.

Pentru a schimba harta: Pentru mărire, faceți clic pe butoanele verzi cu cruce neagră; pentru micșorare, pe butonul verde cu o liniuță; pentru hărți învecinate, pe săgețile verzi.


METAR-TAF: